Location: Doschendorf
(50.0069°N, 11.0602°E)
Time: 09:08:26
(UTC+00:00)

IRS-1C Rocket - Pass Details

Date: 17 November 2019
Orbit: 800 x 806 km, 99.0° (Epoch: 07 December)

Event Time Altitude Azimuth Distance (km) Brightness Sun altitude
Rises 15:58:00 0° 151° (SSE) 3,310 7.2 -4.9°
Reaches altitude 10° 16:00:20 10° 148° (SSE) 2,384 6.5 -5.2°
Maximum altitude 16:05:32 62° 69° (ENE) 910 4.1 -6.0°
Drops below altitude 10° 16:10:45 10° 350° (N) 2,398 6.5 -6.8°
Sets 16:13:06 0° 348° (NNW) 3,333 7.2 -7.1°
